This is the latest recevied weather packets stored in our database for station/object CQ0XVC-11. If no packets are shown the sender has not sent any weather packets the latest 10 day(s).
| Time | Temp. | Humidity | Pressure | Rain* | Wind** | Luminosity | Snow |
|---|---|---|---|---|---|---|---|
| 1778069414 | 17.78° C | 29% | 1000 hPa | 0 mm | - | - | - |
| 1778069112 | 17.78° C | 28% | 1000 hPa | 0 mm | - | - | - |
| 1778068884 | 17.22° C | 30% | 1000 hPa | 0 mm | - | - | - |
| 1778068809 | 17.22° C | 30% | 1000 hPa | 0 mm | - | - | - |
| 1778068507 | 17.22° C | 30% | 1000 hPa | 0 mm | - | - | - |
| 1778068244 | 17.78° C | 28% | 1000.3 hPa | 0 mm | - | - | - |
| 1778068205 | 17.78° C | 28% | 1000.3 hPa | 0 mm | - | - | - |
| 1778067943 | 17.78° C | 30% | 1000.3 hPa | 0 mm | - | - | - |
| 1778067903 | 17.78° C | 30% | 1000.3 hPa | 0 mm | - | - | - |
| 1778067601 | 17.78° C | 30% | 1000.3 hPa | 0 mm | - | - | - |
| 1778067299 | 17.78° C | 32% | 1000.4 hPa | 0 mm | - | - | - |
| 1778067028 | 17.22° C | 32% | 1000.3 hPa | 0 mm | - | - | - |
| 1778066996 | 17.22° C | 32% | 1000.3 hPa | 0 mm | - | - | - |
| 1778066730 | 17.22° C | 33% | 1000.5 hPa | 0 mm | - | - | - |
| 1778066694 | 17.22° C | 33% | 1000.5 hPa | 0 mm | - | - | - |
| 1778066424 | 17.22° C | 33% | 1000.5 hPa | 0 mm | - | - | - |
| 1778066392 | 17.22° C | 33% | 1000.5 hPa | 0 mm | - | - | - |
| 1778066140 | 17.22° C | 34% | 1000.5 hPa | 0 mm | - | - | - |
| 1778066090 | 17.22° C | 34% | 1000.5 hPa | 0 mm | - | - | - |
| 1778065788 | 17.22° C | 36% | 1000.5 hPa | 0 mm | - | - | - |
| 1778065523 | 16.67° C | 35% | 1000.4 hPa | 0 mm | - | - | - |
| 1778065486 | 16.67° C | 35% | 1000.4 hPa | 0 mm | - | - | - |
| 1778065183 | 16.67° C | 35% | 1000.7 hPa | 0 mm | - | - | - |
| 1778064882 | 17.22° C | 35% | 1000.6 hPa | 0 mm | - | - | - |
| 1778063974 | 16.67° C | 38% | 1000.8 hPa | 0 mm | - | - | - |
* Rain since midnight (hover to see other rain measurements)
** Current wind speed in m/s (hover to see current wind gust speed)